SCP
0 0 0 0 0 0 0 0 0 0 0 0 0 0 0 0 0 0 0 0 0 0 0 0 1 1 1 1 1 1 1 1 1 1 1 1 0 0 0 0 0 0 0
0 0 0 0 0 0 0 0 0 0 0 0 0 0 0 0 0 0 0 0 0 0 0 0 0 1 1 1 1 1 1 1 1 1 1 1 0 0 0 0 0 0 0
0 0 0 0 -0 -0 -0 0 0 0 0 0 0 0 0 0 0 0 0 0 0 0 0 0 0 1 1 1 1 1 2 2 1 1 1 1 0 0 0 0 0 0 0
0 0 0 0 -0 -0 -0 -0 -0 -0 -0 -0 -0 0 0 0 0 0 0 0 0 0 0 0 0 0 1 1 1 1 1 2 3 2 1 1 0 0 0 0 0 0 0
0 0 0 0 0 -0 -0 -0 -0 -0 -0 -0 -0 -0 -0 0 0 0 0 0 0 0 0 0 0 0 0 1 1 1 1 2 2 2 1 1 0 0 0 0 0 0 0
0 0 0 0 0 -0 -0 -0 -0 -0 -0 -0 -0 -0 -0 -0 -0 0 0 0 0 0 0 0 0 0 0 0 1 1 1 1 2 2 2 1 1 0 0 0 0 0 0
-0 0 0 0 0 0 0 -0 -0 -0 -0 -0 -0 -0 -0 0 -0 -0 0 -0 0 0 0 0 0 0 0 0 0 1 1 1 2 2 1 1 1 0 0 0 0 0 0
0 0 0 0 0 0 0 0 0 0 -0 -0 -0 -0 -0 -0 -0 -0 -0 -0 -0 0 0 0 0 0 0 0 0 0 1 1 1 2 1 1 1 1 0 0 0 0 0
0 0 0 0 0 0 0 0 0 0 0 0 0 0 0 0 -0 -0 -0 0 0 0 0 0 0 0 0 0 0 0 0 0 0 1 1 1 1 1 0 0 0 0 0
0 0 0 0 0 0 0 0 0 0 0 0 0 0 0 0 0 -0 -0 0 -0 0 0 0 0 0 0 0 0 0 0 0 0 0 0 0 1 1 1 0 0 0 0
0 0 0 0 0 0 0 0 0 0 0 0 0 0 0 0 0 0 0 0 0 0 0 0 0 0 0 0 0 0 0 0 0 0 0 0 0 1 1 0 0 0 0
0 0 0 0 0 0 0 0 0 0 0 0 0 0 0 0 0 0 0 0 0 0 0 0 0 0 0 0 0 0 0 0 0 0 0 0 0 0 0 0 0 0 0
0 0 0 0 0 0 0 0 0 0 0 0 0 0 0 0 0 0 0 0 0 0 0 0 0 -0 0 0 0 0 0 0 0 0 0 0 0 0 0 0 0 0 0
0 0 0 0 0 0 0 0 0 0 0 0 0 0 0 0 0 0 0 0 0 0 -0 0 0 -0 -0 0 0 0 0 0 0 0 0 0 0 0 0 0 0 0 0
0 0 0 0 0 0 0 0 0 0 0 0 0 0 0 0 0 0 0 0 0 -0 -0 -0 -0 -0 -0 -0 0 0 0 0 0 0 0 0 0 0 0 0 0 0 0
0 0 0 0 0 0 0 0 0 0 0 0 0 0 0 0 0 0 0 0 0 -0 -0 0 -0 -0 -0 -0 -0 0 0 0 0 0 0 0 0 0 0 0 0 0 0
0 0 0 0 0 0 0 0 0 0 0 0 0 0 0 0 0 0 0 -0 -0 0 0 -0 -0 0 -0 -0 -0 0 0 0 0 0 0 0 0 0 0 0 0 0 0
0 0 0 0 0 0 0 0 0 0 0 0 0 0 0 0 0 0 -0 0 -0 -0 0 -0 -0 -0 0 -0 -0 0 0 0 0 0 0 0 0 0 0 0 0 0 0
0 0 0 0 0 0 0 0 0 0 0 0 0 0 0 0 0 -0 -0 -0 -0 -0 0 0 -0 -0 -0 -0 -0 -0 0 0 0 0 0 0 0 0 0 0 0 0 0
0 0 0 0 0 0 0 0 0 0 0 0 0 0 0 -0 -0 -0 0 0 -0 -0 0 0 -0 -0 -0 0 -0 -0 0 0 0 0 0 0 0 0 0 0 0 0 0
0 0 0 0 0 0 0 0 0 0 0 0 0 0 -0 -0 -0 -0 0 0 0 0 0 0 -0 -0 -0 -0 -0 -0 0 0 0 0 0 0 0 0 0 0 0 0 0
0 0 0 0 0 0 0 0 0 0 0 0 0 -0 -0 -0 0 -0 0 0 0 0 0 0 -0 -0 -0 -0 -0 -0 0 0 0 0 0 0 0 0 0 0 0 0 0
0 0 0 0 0 0 0 0 0 0 0 0 0 0 0 0 0 0 0 0 0 0 0 0 -0 -0 -0 -0 -0 -0 0 0 0 0 0 0 0 0 0 0 0 0 0
0 0 0 0 0 0 0 0 0 0 0 0 0 0 0 0 0 0 0 0 0 0 0 -0 -0 -0 -0 -0 -0 -0 0 0 0 0 0 0 0 0 0 0 0 0 0
0 0 0 0 0 0 -0 -0 0 0 0 0 0 0 0 0 0 0 0 0 0 0 0 -0 -0 -0 -0 -0 -0 -0 -0 0 0 0 0 0 0 0 0 0 0 0 0
0 0 0 0 0 0 -0 -0 0 0 0 0 0 -0 0 0 -0 0 0 0 0 -0 0 -0 -0 -0 -0 -0 -0 -0 0 0 0 0 0 0 0 0 0 0 0 0 0
Wind_Speed_500mb
40 43 47 52 54 54 54 52 55 60 62 62 60 62 67 71 80 82 86 87 86 85 84 80 78 74 81 85 91 91 85 85 83 83 85 83 78 73 67 61 63 56 50
42 44 49 52 54 56 58 61 61 62 64 67 70 68 67 68 71 83 88 90 94 91 91 89 87 84 80 87 91 96 93 92 91 89 90 90 86 81 74 69 68 61 58
44 49 54 57 60 62 62 63 65 69 69 66 70 76 77 74 75 74 87 97 94 98 97 100 97 94 89 87 91 97 101 97 95 91 94 96 94 89 82 77 71 68 63
46 49 54 60 62 65 68 70 72 75 78 82 83 79 78 81 83 83 80 87 102 103 101 101 105 103 99 93 97 97 105 106 103 101 102 104 104 96 89 85 79 74 67
49 53 57 62 66 68 71 74 75 77 82 85 89 92 94 93 85 86 93 88 89 105 106 104 104 110 108 101 100 104 106 111 113 109 109 112 111 104 97 94 84 79 72
49 55 62 64 67 71 73 75 79 79 81 86 91 97 99 101 103 104 100 95 98 96 110 114 109 109 115 111 103 108 108 115 121 116 116 117 116 111 109 103 94 87 80
50 58 64 67 68 72 74 76 79 81 82 82 89 98 106 109 102 92 96 103 97 99 99 113 119 116 116 120 113 109 115 117 125 126 121 124 128 121 121 111 105 95 88
52 62 67 69 69 74 73 74 75 82 86 78 67 68 60 92 77 46 55 74 83 80 94 102 117 121 126 124 122 116 117 120 127 135 132 132 134 133 135 122 115 103 94
53 61 63 66 67 71 74 73 73 73 82 83 71 47 31 38 77 89 69 68 76 74 77 79 86 112 120 123 121 119 120 126 132 137 159 148 145 137 141 130 125 112 99
53 61 65 67 68 71 73 74 76 79 79 87 73 67 65 73 51 82 71 65 66 88 87 76 77 89 110 115 128 116 126 126 134 140 148 159 146 148 143 137 130 118 105
58 63 68 71 72 74 74 75 77 81 83 87 84 72 63 66 79 85 102 83 79 88 104 107 95 91 80 112 108 125 122 126 125 126 123 114 160 144 147 152 142 119 106
67 65 69 72 73 74 76 81 82 85 86 90 86 89 83 70 73 66 80 86 80 90 90 99 96 110 93 80 102 115 122 126 123 110 124 125 114 171 162 159 149 121 106
69 72 74 73 73 75 78 82 87 92 93 91 97 97 89 84 78 77 85 102 95 89 81 82 86 87 99 84 102 114 119 117 117 111 106 99 110 140 155 156 142 124 109
75 77 79 81 83 82 82 83 89 95 96 98 97 89 79 86 80 87 80 92 93 87 81 93 85 89 98 98 83 64 115 117 114 116 113 112 110 135 150 160 144 121 108
79 84 85 85 86 88 87 88 90 94 96 98 94 87 84 86 84 89 102 87 77 85 84 71 73 89 79 82 101 94 85 111 112 112 119 116 113 141 145 162 134 112 113
81 87 86 87 88 89 89 91 96 97 96 99 86 83 87 83 74 82 71 87 102 88 107 78 72 89 88 78 89 75 87 116 107 108 104 113 122 163 178 131 111 112 123
84 87 87 86 88 89 91 95 99 99 97 93 84 84 89 79 88 87 85 99 96 98 90 76 74 78 83 83 95 111 68 113 107 106 110 123 138 172 146 138 135 125 119
83 83 83 84 84 86 93 98 101 100 92 89 85 82 87 81 83 81 86 80 85 108 87 87 74 74 69 77 74 85 87 83 98 92 112 140 162 164 157 148 142 137 135
79 77 79 82 84 87 95 98 97 98 87 81 82 81 84 82 87 88 90 84 84 99 82 82 79 80 76 91 79 91 86 77 95 107 108 164 178 176 166 153 143 137 139
76 77 79 83 84 88 93 94 87 76 71 70 71 73 76 75 80 79 82 81 76 84 79 63 73 78 55 64 71 76 84 76 107 116 145 157 174 169 149 147 141 135 132
72 75 82 84 86 89 91 81 71 74 77 78 78 75 73 76 74 74 75 72 70 75 68 65 70 76 68 55 55 76 91 62 103 130 132 157 146 148 146 134 133 136 132
70 75 78 82 85 86 83 65 67 75 73 76 81 81 77 74 78 75 77 77 79 82 87 55 66 70 73 81 88 68 68 73 101 106 125 125 134 131 137 135 132 127 128
69 73 77 80 82 83 74 64 64 67 69 69 72 77 77 74 78 79 73 71 74 79 90 77 74 78 65 71 76 87 101 101 119 145 147 135 139 134 144 136 132 131 127
67 72 76 77 81 78 71 66 66 67 68 70 71 74 76 81 86 85 81 75 74 58 83 81 84 85 78 68 80 80 74 102 110 151 160 132 148 132 144 138 134 130 127
65 71 75 77 81 86 72 66 66 72 63 62 65 69 65 80 74 70 74 79 76 74 66 71 90 99 91 88 84 86 102 73 107 127 142 138 120 120 121 132 136 140 137
64 72 77 76 85 88 76 67 64 73 74 75 75 74 72 70 67 76 71 75 81 83 72 76 83 88 92 98 88 86 93 74 121 115 134 126 127 124 100 124 145 143 130
Wind_Direction_500mb
335 334 332 331 331 331 330 328 323 318 313 308 302 294 283 273 268 272 273 269 261 256 254 252 251 247 247 246 242 235 231 230 229 225 221 221 222 222 222 216 213 212 211
331 332 331 329 328 328 329 329 329 323 319 314 308 302 296 289 274 261 264 270 269 262 255 252 250 248 246 245 246 238 233 231 229 227 222 222 221 221 222 217 214 214 211
328 331 329 326 325 325 326 324 324 322 319 315 311 307 302 295 288 278 263 258 266 268 262 254 249 247 246 245 244 242 233 232 229 228 225 221 222 221 221 218 215 214 212
325 325 323 321 321 321 322 323 323 322 320 319 315 309 302 298 293 287 279 266 257 259 266 260 253 249 246 245 243 241 237 233 233 228 228 223 221 221 221 216 216 213 211
321 322 321 320 319 320 322 323 322 321 319 317 315 311 308 303 295 288 284 276 266 256 256 263 258 250 247 242 243 241 239 235 231 230 227 224 221 220 220 216 214 212 212
320 321 319 318 319 319 320 320 319 318 316 315 312 306 304 301 299 296 289 281 275 264 254 255 257 256 247 243 239 241 238 235 230 228 228 224 222 223 220 215 214 211 213
320 318 314 313 314 315 316 317 317 317 315 317 313 311 304 300 297 294 291 292 282 273 263 256 254 256 254 245 240 237 238 235 231 227 226 227 221 226 218 215 212 209 214
318 313 310 311 313 312 314 314 314 313 313 315 310 306 307 303 307 303 294 288 286 280 270 260 256 252 254 249 244 237 235 235 231 228 226 223 226 223 215 214 210 209 211
315 309 308 308 311 312 313 311 310 308 306 304 301 277 291 281 304 292 284 276 273 274 273 270 263 252 253 252 248 243 236 235 234 233 225 220 219 219 215 211 209 208 208
313 310 309 310 311 308 307 306 305 303 302 300 294 284 274 274 286 297 286 280 277 267 264 254 249 252 251 253 250 244 240 234 235 235 237 208 212 214 213 209 207 205 205
314 311 311 310 309 306 305 303 301 298 298 297 293 289 279 276 269 267 281 286 278 272 271 263 258 245 245 247 248 245 241 239 235 237 240 234 203 213 211 208 204 204 206
313 312 310 309 308 306 304 302 298 296 295 293 288 288 282 272 271 267 268 272 274 267 269 270 270 260 248 241 240 240 240 242 238 233 235 231 237 202 205 205 199 198 206
314 315 313 311 309 308 304 302 300 298 297 292 291 290 288 279 277 269 265 272 270 276 262 256 262 266 261 250 241 242 239 237 240 232 229 231 221 213 202 205 199 194 198
317 317 316 316 314 309 305 301 298 297 296 295 291 283 274 273 265 260 264 266 272 277 262 260 263 268 267 263 237 237 236 234 236 233 227 229 228 205 204 191 188 188 190
317 317 317 316 312 309 307 303 299 296 294 294 287 281 276 280 276 270 260 258 268 268 266 264 265 266 271 274 241 265 236 232 230 234 225 226 223 202 196 194 186 183 191
315 314 315 313 311 309 307 303 300 297 294 292 282 276 276 281 267 261 264 262 261 267 266 254 260 267 268 259 252 245 247 232 229 230 228 224 216 198 190 193 175 184 189
314 313 311 310 310 309 307 303 299 297 293 289 281 275 276 273 271 278 271 256 260 258 265 260 264 266 269 273 247 246 257 233 234 230 221 211 197 190 186 184 179 183 188
312 312 311 311 310 309 307 304 300 298 290 285 280 276 274 274 272 273 267 262 264 256 277 259 260 264 264 273 258 259 253 233 229 220 216 209 203 201 187 182 178 183 189
314 315 313 313 312 312 308 305 302 297 291 285 282 277 276 273 272 273 274 263 262 256 277 259 262 268 272 270 262 265 260 270 226 235 219 204 195 193 193 179 180 184 188
321 320 317 315 316 314 311 309 302 297 292 289 285 279 274 272 275 277 273 268 258 264 275 249 258 262 276 264 272 258 251 223 209 209 195 191 190 179 174 177 178 184 188
323 321 319 319 321 319 316 313 304 298 292 288 284 283 280 281 277 272 272 269 265 260 263 253 253 262 263 259 258 264 260 252 179 175 167 172 173 173 174 174 180 186 187
324 322 322 323 324 324 325 309 302 298 292 288 288 287 284 283 279 270 267 264 258 259 257 267 252 260 266 268 271 265 267 277 175 178 171 170 170 174 174 181 185 186 188
324 324 325 329 329 334 329 314 307 298 294 291 288 286 283 281 282 279 273 266 257 255 249 248 258 259 258 267 262 265 252 257 182 175 173 170 173 173 179 183 188 189 190
326 327 329 334 334 339 332 317 312 305 302 296 292 289 289 291 291 278 276 266 256 257 246 243 244 256 256 265 263 270 263 267 176 169 172 164 176 175 182 184 191 192 194
327 328 334 338 339 342 337 323 319 312 308 303 301 293 287 287 285 278 267 265 262 246 243 252 251 254 260 269 269 275 261 265 163 166 168 163 170 170 180 190 192 194 199
330 334 335 344 346 342 338 326 326 318 309 307 301 296 291 285 284 279 262 258 259 248 247 252 245 250 256 264 263 267 270 262 164 164 169 165 167 170 182 192 195 202 201
Wind_Speed_850mb
40 43 47 52 54 54 54 52 55 60 62 62 60 62 67 71 80 82 86 87 86 85 84 80 78 74 81 85 91 91 85 85 83 83 85 83 78 73 67 61 63 56 50
42 44 49 52 54 56 58 61 61 62 64 67 70 68 67 68 71 83 88 90 94 91 91 89 87 84 80 87 91 96 93 92 91 89 90 90 86 81 74 69 68 61 58
44 49 54 57 60 62 62 63 65 69 69 66 70 76 77 74 75 74 87 97 94 98 97 100 97 94 89 87 91 97 101 97 95 91 94 96 94 89 82 77 71 68 63
46 49 54 60 62 65 68 70 72 75 78 82 83 79 78 81 83 83 80 87 102 103 101 101 105 103 99 93 97 97 105 106 103 101 102 104 104 96 89 85 79 74 67
49 53 57 62 66 68 71 74 75 77 82 85 89 92 94 93 85 86 93 88 89 105 106 104 104 110 108 101 100 104 106 111 113 109 109 112 111 104 97 94 84 79 72
49 55 62 64 67 71 73 75 79 79 81 86 91 97 99 101 103 104 100 95 98 96 110 114 109 109 115 111 103 108 108 115 121 116 116 117 116 111 109 103 94 87 80
50 58 64 67 68 72 74 76 79 81 82 82 89 98 106 109 102 92 96 103 97 99 99 113 119 116 116 120 113 109 115 117 125 126 121 124 128 121 121 111 105 95 88
52 62 67 69 69 74 73 74 75 82 86 78 67 68 60 92 77 46 55 74 83 80 94 102 117 121 126 124 122 116 117 120 127 135 132 132 134 133 135 122 115 103 94
53 61 63 66 67 71 74 73 73 73 82 83 71 47 31 38 77 89 69 68 76 74 77 79 86 112 120 123 121 119 120 126 132 137 159 148 145 137 141 130 125 112 99
53 61 65 67 68 71 73 74 76 79 79 87 73 67 65 73 51 82 71 65 66 88 87 76 77 89 110 115 128 116 126 126 134 140 148 159 146 148 143 137 130 118 105
58 63 68 71 72 74 74 75 77 81 83 87 84 72 63 66 79 85 102 83 79 88 104 107 95 91 80 112 108 125 122 126 125 126 123 114 160 144 147 152 142 119 106
67 65 69 72 73 74 76 81 82 85 86 90 86 89 83 70 73 66 80 86 80 90 90 99 96 110 93 80 102 115 122 126 123 110 124 125 114 171 162 159 149 121 106
69 72 74 73 73 75 78 82 87 92 93 91 97 97 89 84 78 77 85 102 95 89 81 82 86 87 99 84 102 114 119 117 117 111 106 99 110 140 155 156 142 124 109
75 77 79 81 83 82 82 83 89 95 96 98 97 89 79 86 80 87 80 92 93 87 81 93 85 89 98 98 83 64 115 117 114 116 113 112 110 135 150 160 144 121 108
79 84 85 85 86 88 87 88 90 94 96 98 94 87 84 86 84 89 102 87 77 85 84 71 73 89 79 82 101 94 85 111 112 112 119 116 113 141 145 162 134 112 113
81 87 86 87 88 89 89 91 96 97 96 99 86 83 87 83 74 82 71 87 102 88 107 78 72 89 88 78 89 75 87 116 107 108 104 113 122 163 178 131 111 112 123
84 87 87 86 88 89 91 95 99 99 97 93 84 84 89 79 88 87 85 99 96 98 90 76 74 78 83 83 95 111 68 113 107 106 110 123 138 172 146 138 135 125 119
83 83 83 84 84 86 93 98 101 100 92 89 85 82 87 81 83 81 86 80 85 108 87 87 74 74 69 77 74 85 87 83 98 92 112 140 162 164 157 148 142 137 135
79 77 79 82 84 87 95 98 97 98 87 81 82 81 84 82 87 88 90 84 84 99 82 82 79 80 76 91 79 91 86 77 95 107 108 164 178 176 166 153 143 137 139
76 77 79 83 84 88 93 94 87 76 71 70 71 73 76 75 80 79 82 81 76 84 79 63 73 78 55 64 71 76 84 76 107 116 145 157 174 169 149 147 141 135 132
72 75 82 84 86 89 91 81 71 74 77 78 78 75 73 76 74 74 75 72 70 75 68 65 70 76 68 55 55 76 91 62 103 130 132 157 146 148 146 134 133 136 132
70 75 78 82 85 86 83 65 67 75 73 76 81 81 77 74 78 75 77 77 79 82 87 55 66 70 73 81 88 68 68 73 101 106 125 125 134 131 137 135 132 127 128
69 73 77 80 82 83 74 64 64 67 69 69 72 77 77 74 78 79 73 71 74 79 90 77 74 78 65 71 76 87 101 101 119 145 147 135 139 134 144 136 132 131 127
67 72 76 77 81 78 71 66 66 67 68 70 71 74 76 81 86 85 81 75 74 58 83 81 84 85 78 68 80 80 74 102 110 151 160 132 148 132 144 138 134 130 127
65 71 75 77 81 86 72 66 66 72 63 62 65 69 65 80 74 70 74 79 76 74 66 71 90 99 91 88 84 86 102 73 107 127 142 138 120 120 121 132 136 140 137
64 72 77 76 85 88 76 67 64 73 74 75 75 74 72 70 67 76 71 75 81 83 72 76 83 88 92 98 88 86 93 74 121 115 134 126 127 124 100 124 145 143 130
Wind_Direction_850mb
335 334 332 331 331 331 330 328 323 318 313 308 302 294 283 273 268 272 273 269 261 256 254 252 251 247 247 246 242 235 231 230 229 225 221 221 222 222 222 216 213 212 211
331 332 331 329 328 328 329 329 329 323 319 314 308 302 296 289 274 261 264 270 269 262 255 252 250 248 246 245 246 238 233 231 229 227 222 222 221 221 222 217 214 214 211
328 331 329 326 325 325 326 324 324 322 319 315 311 307 302 295 288 278 263 258 266 268 262 254 249 247 246 245 244 242 233 232 229 228 225 221 222 221 221 218 215 214 212
325 325 323 321 321 321 322 323 323 322 320 319 315 309 302 298 293 287 279 266 257 259 266 260 253 249 246 245 243 241 237 233 233 228 228 223 221 221 221 216 216 213 211
321 322 321 320 319 320 322 323 322 321 319 317 315 311 308 303 295 288 284 276 266 256 256 263 258 250 247 242 243 241 239 235 231 230 227 224 221 220 220 216 214 212 212
320 321 319 318 319 319 320 320 319 318 316 315 312 306 304 301 299 296 289 281 275 264 254 255 257 256 247 243 239 241 238 235 230 228 228 224 222 223 220 215 214 211 213
320 318 314 313 314 315 316 317 317 317 315 317 313 311 304 300 297 294 291 292 282 273 263 256 254 256 254 245 240 237 238 235 231 227 226 227 221 226 218 215 212 209 214
318 313 310 311 313 312 314 314 314 313 313 315 310 306 307 303 307 303 294 288 286 280 270 260 256 252 254 249 244 237 235 235 231 228 226 223 226 223 215 214 210 209 211
315 309 308 308 311 312 313 311 310 308 306 304 301 277 291 281 304 292 284 276 273 274 273 270 263 252 253 252 248 243 236 235 234 233 225 220 219 219 215 211 209 208 208
313 310 309 310 311 308 307 306 305 303 302 300 294 284 274 274 286 297 286 280 277 267 264 254 249 252 251 253 250 244 240 234 235 235 237 208 212 214 213 209 207 205 205
314 311 311 310 309 306 305 303 301 298 298 297 293 289 279 276 269 267 281 286 278 272 271 263 258 245 245 247 248 245 241 239 235 237 240 234 203 213 211 208 204 204 206
313 312 310 309 308 306 304 302 298 296 295 293 288 288 282 272 271 267 268 272 274 267 269 270 270 260 248 241 240 240 240 242 238 233 235 231 237 202 205 205 199 198 206
314 315 313 311 309 308 304 302 300 298 297 292 291 290 288 279 277 269 265 272 270 276 262 256 262 266 261 250 241 242 239 237 240 232 229 231 221 213 202 205 199 194 198
317 317 316 316 314 309 305 301 298 297 296 295 291 283 274 273 265 260 264 266 272 277 262 260 263 268 267 263 237 237 236 234 236 233 227 229 228 205 204 191 188 188 190
317 317 317 316 312 309 307 303 299 296 294 294 287 281 276 280 276 270 260 258 268 268 266 264 265 266 271 274 241 265 236 232 230 234 225 226 223 202 196 194 186 183 191
315 314 315 313 311 309 307 303 300 297 294 292 282 276 276 281 267 261 264 262 261 267 266 254 260 267 268 259 252 245 247 232 229 230 228 224 216 198 190 193 175 184 189
314 313 311 310 310 309 307 303 299 297 293 289 281 275 276 273 271 278 271 256 260 258 265 260 264 266 269 273 247 246 257 233 234 230 221 211 197 190 186 184 179 183 188
312 312 311 311 310 309 307 304 300 298 290 285 280 276 274 274 272 273 267 262 264 256 277 259 260 264 264 273 258 259 253 233 229 220 216 209 203 201 187 182 178 183 189
314 315 313 313 312 312 308 305 302 297 291 285 282 277 276 273 272 273 274 263 262 256 277 259 262 268 272 270 262 265 260 270 226 235 219 204 195 193 193 179 180 184 188
321 320 317 315 316 314 311 309 302 297 292 289 285 279 274 272 275 277 273 268 258 264 275 249 258 262 276 264 272 258 251 223 209 209 195 191 190 179 174 177 178 184 188
323 321 319 319 321 319 316 313 304 298 292 288 284 283 280 281 277 272 272 269 265 260 263 253 253 262 263 259 258 264 260 252 179 175 167 172 173 173 174 174 180 186 187
324 322 322 323 324 324 325 309 302 298 292 288 288 287 284 283 279 270 267 264 258 259 257 267 252 260 266 268 271 265 267 277 175 178 171 170 170 174 174 181 185 186 188
324 324 325 329 329 334 329 314 307 298 294 291 288 286 283 281 282 279 273 266 257 255 249 248 258 259 258 267 262 265 252 257 182 175 173 170 173 173 179 183 188 189 190
326 327 329 334 334 339 332 317 312 305 302 296 292 289 289 291 291 278 276 266 256 257 246 243 244 256 256 265 263 270 263 267 176 169 172 164 176 175 182 184 191 192 194
327 328 334 338 339 342 337 323 319 312 308 303 301 293 287 287 285 278 267 265 262 246 243 252 251 254 260 269 269 275 261 265 163 166 168 163 170 170 180 190 192 194 199
330 334 335 344 346 342 338 326 326 318 309 307 301 296 291 285 284 279 262 258 259 248 247 252 245 250 256 264 263 267 270 262 164 164 169 165 167 170 182 192 195 202 201